LEAS Weather Reports


Display with metric or nautical units.
time (UTC)temp
F
wind
direction
speed
MPH
gust
MPH
rain 1hr
in
rain 24hr
in
rain mn
in
humidity
%
barometer
mb
20260507071504 54 0 1.0 0.0 0.00 0.00 0.00 93 1011.0
20260507061504 50 230 5.0 0.0 0.00 0.00 0.00 93 1011.0
20260507054504 48 0 1.0 0.0 0.00 0.00 0.00 100 1011.0
20260507051504 50 0 1.0 0.0 0.00 0.00 0.00 93 1011.0
20260507050005 50 210 3.0 0.0 0.00 0.00 0.00 93 1012.0
20260507044504 50 210 3.0 0.0 0.00 0.00 0.00 93 1012.0
20260507041504 52 180 2.0 0.0 0.00 0.00 0.00 87 1012.0
20260507023004 52 200 2.0 0.0 0.00 0.00 0.00 93 1012.0
20260507021503 52 200 2.0 0.0 0.00 0.00 0.00 93 1012.0
20260507020005 52 150 2.0 0.0 0.00 0.00 0.00 93 1013.0
20260507014504 52 150 2.0 0.0 0.00 0.00 0.00 93 1013.0
20260507010004 54 0 2.0 0.0 0.00 0.00 0.00 93 1013.0
20260507004503 54 0 2.0 0.0 0.00 0.00 0.00 93 1013.0
20260507001504 54 210 5.0 0.0 0.00 0.00 0.00 93 1013.0
20260507000004 54 230 5.0 0.0 0.00 0.00 0.00 93 1013.0
20260506234505 54 230 5.0 0.0 0.00 0.00 0.00 93 1013.0
20260506233004 54 190 5.0 0.0 0.00 0.00 0.00 87 1014.0
20260506231504 54 190 5.0 0.0 0.00 0.00 0.00 87 1014.0
20260506230004 55 190 5.0 0.0 0.00 0.00 0.00 87 1014.0
20260506224503 55 190 5.0 0.0 0.00 0.00 0.00 87 1014.0
20260506221504 55 0 2.0 0.0 0.00 0.00 0.00 87 1014.0
20260506214504 55 0 2.0 0.0 0.00 0.00 0.00 87 1014.0
20260506213004 55 130 3.0 0.0 0.00 0.00 0.00 87 1014.0
20260506211504 55 130 3.0 0.0 0.00 0.00 0.00 87 1014.0
20260506204504 55 0 2.0 0.0 0.00 0.00 0.00 87 1014.0
20260506200004 57 0 1.0 0.0 0.00 0.00 0.00 87 1014.0
20260506194504 57 0 1.0 0.0 0.00 0.00 0.00 87 1014.0
20260506184504 57 310 5.0 0.0 0.00 0.00 0.00 82 1014.0
20260506183004 57 300 5.0 0.0 0.00 0.00 0.00 82 1014.0
20260506174504 59 310 7.0 0.0 0.00 0.00 0.00 76 1014.0
20260506173004 59 310 7.0 0.0 0.00 0.00 0.00 76 1014.0
20260506171504 59 310 7.0 0.0 0.00 0.00 0.00 76 1014.0
20260506163005 61 320 7.0 0.0 0.00 0.00 0.00 77 1014.0
20260506154504 59 310 7.0 0.0 0.00 0.00 0.00 76 1014.0
20260506151504 59 320 8.0 0.0 0.00 0.00 0.00 76 1014.0
20260506150004 59 310 8.0 0.0 0.00 0.00 0.00 76 1015.0
20260506140004 59 330 1.0 0.0 0.00 0.00 0.00 76 1015.0
20260506134504 59 330 1.0 0.0 0.00 0.00 0.00 76 1015.0
20260506133004 59 320 9.0 0.0 0.00 0.00 0.00 76 1015.0
20260506130005 61 290 12.0 0.0 0.00 0.00 0.00 72 1015.0
20260506124504 61 290 12.0 0.0 0.00 0.00 0.00 72 1015.0
20260506123004 59 300 1.0 0.0 0.00 0.00 0.00 72 1015.0
20260506121505 59 300 1.0 0.0 0.00 0.00 0.00 72 1015.0
20260506114503 63 300 9.0 0.0 0.00 0.00 0.00 77 1015.0
20260506111503 59 280 13.0 0.0 0.00 0.00 0.00 76 1015.0
20260506110005 61 290 9.0 0.0 0.00 0.00 0.00 72 1015.0
20260506104504 61 290 9.0 0.0 0.00 0.00 0.00 72 1015.0
20260506103005 57 280 6.0 0.0 0.00 0.00 0.00 76 1015.0
20260506101504 57 280 6.0 0.0 0.00 0.00 0.00 76 1015.0
20260506100004 57 250 7.0 0.0 0.00 0.00 0.00 76 1015.0
20260506094504 57 250 7.0 0.0 0.00 0.00 0.00 76 1015.0
20260506090004 54 230 6.0 0.0 0.00 0.00 0.00 81 1015.0
20260506084504 54 230 6.0 0.0 0.00 0.00 0.00 81 1015.0
20260506083004 52 230 7.0 0.0 0.00 0.00 0.00 87 1015.0